#timestamp,LO_Frequency,Hit,StdDev 
1521939615.8,286046998.5,N
1521939635.7,286047011.9,Y
1521939655.5,286046999.3,P
1521939675.4,286046999.5,P
1521939695.2,286046998.2,P
1521939715.0,286046999.1,N
1521939715.9,286046999.1,N
1521939735.8,286046997.0,Y
1521939755.6,286046999.6,P
1521939775.5,286046996.6,P
1521939795.3,286046998.6,N
1521939815.1,286047000.3,N
1521939835.9,286046999.8,N
1521939855.7,286046998.2,N
1521939875.5,286046998.3,N
1521939895.4,286047000.3,N
1521939915.2,286047000.9,N
1521939935.1,286046998.1,N
1521939936.0,286046998.1,N
1521939955.8,286047000.7,N
1521939975.6,286047002.4,N
1521939995.5,286047003.7,N
1521940015.3,286047002.3,N
1521940035.2,286047000.2,N
1521940055.9,286046998.6,N
1521940075.7,286047001.2,N
1521940095.6,286046997.2,N
1521940115.4,286046998.9,N
1521940135.2,286046999.2,N
1521940155.1,286047001.1,N
1521940156.0,286047001.1,N
1521940175.8,286046998.3,N
1521940195.7,286047000.5,N
1521940215.5,286047000.5,N
1521940235.3,286046998.8,N
1521940255.2,286046996.5,N
1521940275.0,286046999.0,N
1521940275.9,286046999.0,N
1521940295.7,286046996.5,N
1521940315.6,286047001.2,N
1521940335.4,286046996.9,N
1521940355.3,286046997.7,N
1521940375.1,286046998.9,N
1521940376.0,286046998.9,N
1521940395.8,286046998.5,N
1521940415.7,286046998.2,N
1521940435.5,286046999.2,N
1521940455.4,286046998.8,N
1521940475.2,286047000.3,N
1521940495.0,286047000.9,N
1521940495.9,286047000.9,N
1521940515.8,286047002.1,N
1521940535.6,286047002.8,N
1521940555.4,286047004.4,N
1521940575.3,286047003.5,N
1521940595.1,286047004.6,N
1521940615.9,286047005.2,N
1521940635.7,286047004.7,N
1521940655.5,286047005.5,N
1521940675.4,286047005.8,N
1521940695.2,286047005.7,N
1521940715.1,286047004.4,N
1521940716.0,286047004.4,N
1521940735.8,286047001.4,N
1521940755.6,286046999.9,N
1521940775.5,286046998.2,N
1521940795.3,286047000.7,N
1521940815.1,286046998.6,N
1521940835.9,286046999.9,N
1521940855.7,286046998.6,N
1521940875.6,286046998.4,N
1521940895.4,286047000.2,N
1521940915.2,286047002.7,N
1521940935.1,286046999.9,N
1521940936.0,286046999.9,N
1521940955.8,286047002.1,N
1521940975.7,286047001.7,N
1521940995.5,286047002.5,N
1521941015.3,286046999.8,N
1521941035.2,286047000.8,N
1521941055.0,286047001.0,N
1521941055.9,286047001.0,N
1521941075.8,286046998.2,N
1521941095.6,286047001.2,N
1521941115.4,286046998.6,N
1521941135.3,286047000.5,N
1521941155.1,286047000.5,N
1521941175.8,286047000.0,N
1521941195.7,286046999.4,N
1521941215.5,286046999.5,N
1521941235.4,286046997.6,N
1521941255.2,286046995.4,N
1521941275.0,286046996.3,N
1521941275.9,286046996.3,N
1521941295.8,286046995.7,N
1521941315.6,286046995.9,N
1521941335.4,286046991.9,Y
1521941355.3,286046994.2,P
1521941375.1,286046993.9,N
1521941395.9,286046992.1,P
1521941415.7,286046992.8,N
1521941435.5,286046994.7,N
1521941455.4,286046995.9,N
1521941475.2,286046999.1,N
1521941495.0,286046995.4,N
1521941496.0,286046995.4,N
1521941515.8,286046994.9,N
1521941535.6,286046996.0,N
1521941555.5,286046994.6,N
1521941575.3,286046992.6,Y
1521941595.1,286046995.6,P
1521941615.9,286046995.8,P
1521941635.7,286046995.5,P
1521941655.6,286046998.0,Y
1521941675.4,286046999.9,P
1521941695.2,286047001.2,N
1521941715.1,286047000.9,N
1521941716.0,286047000.9,N
1521941735.8,286046998.6,N
1521941755.7,286046996.5,N
1521941775.5,286046997.3,N
1521941795.3,286046999.4,N
1521941815.2,286046999.4,N
1521941835.9,286046996.2,N
1521941855.7,286046995.7,N
1521941875.6,286046995.1,N
1521941895.4,286046993.8,N
1521941915.3,286046993.8,N
1521941935.1,286046995.1,N
1521941936.0,286046995.1,N
1521941955.8,286046998.0,N
1521941975.7,286046997.1,N
1521941995.5,286046997.9,N
1521942015.3,286046997.9,N
1521942035.2,286046998.7,N
1521942055.0,286046998.9,N
1521942055.9,286046998.9,N
1521942075.8,286046995.2,N
1521942095.6,286046995.4,N
1521942115.4,286046997.9,N
1521942135.3,286046997.8,N
1521942155.1,286046997.9,N
1521942175.9,286046995.1,N
1521942195.7,286046995.1,N
1521942215.5,286046997.1,N
1521942235.4,286046997.9,N
1521942255.2,286046997.1,N
1521942275.0,286046995.0,N
1521942275.9,286046995.0,Y
1521942295.8,286046998.1,P
1521942315.6,286046998.6,N
1521942335.5,286046998.4,N
1521942355.3,286046998.8,N
1521942375.1,286046997.3,Y
1521942395.9,286047001.2,P
1521942415.7,286047002.8,N
1521942435.6,286047000.7,N
1521942455.4,286046998.6,N
1521942475.2,286046998.5,N
1521942495.1,286046998.2,N
1521942496.0,286046998.2,N
1521942515.8,286047000.9,N
1521942535.6,286046999.7,N
1521942555.5,286047002.8,N
1521942575.3,286047000.3,N
1521942595.2,286047000.1,N
1521942615.9,286047000.4,N
1521942635.7,286047002.6,N
1521942655.6,286047002.6,N
1521942675.4,286047000.0,N
1521942695.2,286047002.5,N
1521942715.1,286046998.4,N
1521942716.0,286046998.4,N
1521942735.8,286046998.9,N
1521942755.7,286046996.5,N
1521942775.5,286046999.2,N
1521942795.3,286047001.2,N
1521942815.2,286046998.4,N
1521942835.0,286047001.2,N
1521942835.9,286047001.2,N
1521942855.8,286047000.0,N
1521942875.6,286046998.7,N
1521942895.4,286046999.0,N
1521942915.3,286046999.5,N
1521942935.1,286046996.5,N
1521942955.9,286046998.6,N
1521942975.7,286047002.4,N
1521942995.5,286047001.9,N
1521943015.4,286047002.0,N
1521943035.2,286047004.0,N
1521943055.0,286047003.7,N
1521943055.9,286047003.7,N
1521943075.8,286047003.5,N
1521943095.6,286047005.3,N
1521943115.5,286047004.8,N
1521943135.3,286047007.3,Y
1521943155.1,286047004.6,P
1521943175.9,286047007.1,P
1521943195.7,286047005.4,N
